Temp
20 23 24 24 24 23 22 22 21 19 18 18 17 17 17 17 19 19 20 20 20 20 19 19 19 19 19 19 18 18 18 18 18 18 18 18 18 18 18 18 19 19 19 19
22 23 23 23 23 23 23 23 21 17 17 18 18 17 17 16 16 19 19 20 20 20 19 19 20 19 19 19 19 18 18 18 18 18 18 19 18 18 18 18 18 19 19 19
23 23 23 24 23 23 24 24 21 21 18 18 17 18 17 17 16 17 19 20 21 20 20 19 19 20 19 19 19 18 18 18 18 18 18 19 19 18 18 18 18 19 19 19
23 22 23 23 24 24 24 23 23 20 20 19 18 20 18 17 16 18 19 19 21 20 20 20 19 20 20 20 19 19 18 18 18 18 19 19 19 19 18 18 18 18 18 19
23 23 23 23 24 24 22 22 22 22 21 20 19 19 19 17 17 18 19 20 20 21 21 20 20 20 20 20 20 19 19 18 18 18 18 19 19 19 19 19 19 19 18 18
23 22 24 25 24 25 22 23 22 21 20 21 20 21 20 18 19 20 20 19 20 21 21 21 20 20 21 20 20 19 19 18 18 18 18 19 19 19 19 19 19 19 19 18
23 24 23 24 23 23 24 25 22 22 21 22 19 20 23 22 22 22 22 20 20 20 20 20 19 22 21 20 20 19 19 19 18 18 18 19 18 19 19 19 19 19 19 19
22 23 23 24 25 24 24 25 24 22 22 23 20 20 23 22 22 22 22 20 19 20 19 20 20 22 22 21 20 20 19 19 19 19 19 19 18 19 19 19 19 19 19 19
22 23 24 24 23 25 23 23 23 23 21 22 23 22 22 23 22 22 22 22 20 20 19 20 20 21 22 22 21 20 20 19 19 19 19 19 18 18 19 19 19 19 19 19
23 23 23 24 24 22 24 24 23 22 21 22 23 22 22 21 21 22 22 22 20 20 19 19 19 20 22 22 22 21 20 20 20 19 19 19 18 18 18 19 19 19 19 19
23 22 23 23 24 24 23 23 23 24 24 22 23 22 20 18 19 21 21 22 20 19 20 20 20 21 21 22 22 21 21 20 20 19 19 19 19 19 18 18 19 19 19 19
22 23 23 23 21 22 23 24 24 25 22 22 22 21 18 17 18 19 20 20 20 20 19 20 19 21 21 21 22 21 21 20 20 19 19 19 19 19 19 19 18 18 19 19
22 21 23 23 22 22 22 22 22 22 23 20 23 22 18 18 18 17 17 18 18 19 18 18 18 20 22 22 21 21 21 21 21 20 19 19 19 19 19 19 18 18 18 19
21 21 21 24 21 19 21 21 21 24 24 22 23 19 19 18 17 16 16 17 17 17 18 18 19 20 21 21 21 21 21 21 21 20 20 20 19 19 19 19 19 19 18 18
22 21 21 21 20 20 20 20 21 22 21 22 22 20 18 16 15 15 15 15 16 16 17 18 18 18 18 19 20 20 20 21 20 21 20 20 19 19 19 19 18 18 18 18
19 22 20 20 20 21 22 21 21 21 20 19 20 17 17 14 15 15 14 15 15 15 16 17 17 18 19 19 20 20 20 20 20 20 20 19 19 18 18 18 18 18 18 18
20 20 20 21 20 21 20 21 20 20 19 20 21 18 15 15 15 14 14 14 14 14 15 15 16 16 17 18 18 18 18 19 19 19 19 18 18 18 18 18 18 18 18 18
19 21 20 20 20 20 20 20 21 20 18 18 18 17 16 14 13 13 13 13 13 14 14 15 15 15 16 15 16 16 17 18 19 19 19 18 16 17 16 17 17 18 18 18
18 18 17 19 20 19 20 20 20 21 20 19 18 16 15 14 14 13 13 13 13 14 14 14 15 15 15 15 15 15 15 15 15 16 16 16 16 16 15 15 15 17 17 17
18 17 21 19 20 20 19 19 18 19 21 18 17 16 16 16 19 15 13 13 13 13 13 14 14 15 15 16 15 15 15 15 15 15 15 15 15 15 15 14 14 14 15 16
19 18 20 19 20 20 19 18 18 20 20 17 17 16 16 18 15 13 13 12 13 13 13 13 13 14 15 15 14 14 14 14 14 14 14 14 14 14 15 15 15 15 15 15
20 19 19 17 19 20 16 18 20 19 16 17 16 16 16 14 14 12 12 11 12 13 13 13 13 14 14 14 14 14 14 14 14 14 14 14 14 14 14 14 14 15 15 14
18 19 20 19 19 15 15 16 16 16 15 16 16 15 16 15 15 14 13 11 12 13 13 13 13 13 13 13 13 13 13 13 13 13 13 13 13 13 13 13 13 14 13 13
16 13 18 17 16 16 15 16 16 16 15 16 15 16 16 15 15 14 13 13 11 12 13 12 12 12 13 13 13 13 13 13 13 13 13 12 13 13 13 13 13 13 13 13
17 15 16 17 16 14 15 16 17 17 17 16 16 15 15 16 15 15 15 13 11 11 11 12 12 12 12 12 12 12 12 12 11 12 12 12 12 12 12 13 13 13 13 13
15 17 19 20 19 19 18 18 18 17 17 16 16 15 15 16 16 15 14 13 12 12 11 11 11 11 11 11 11 11 11 11 11 11 11 11 11 11 11 11 11 11 11 11
Height
1520 1518 1517 1517 1518 1520 1523 1527 1533 1538 1538 1537 1542 1541 1540 1544 1546 1545 1549 1551 1552 1557 1561 1563 1565 1569 1571 1574 1577 1580 1583 1585 1587 1590 1593 1595 1597 1598 1599 1600 1602 1603 1605 1606
1519 1517 1518 1518 1520 1520 1522 1527 1533 1541 1539 1537 1539 1539 1541 1544 1543 1545 1547 1549 1550 1556 1558 1561 1564 1567 1570 1574 1577 1579 1582 1585 1587 1591 1593 1596 1597 1598 1600 1601 1602 1603 1605 1606
1516 1516 1518 1518 1521 1522 1522 1524 1531 1531 1538 1540 1541 1543 1539 1539 1543 1544 1543 1547 1549 1551 1554 1558 1561 1565 1568 1572 1575 1578 1581 1584 1587 1590 1593 1595 1598 1599 1600 1602 1603 1604 1605 1606
1516 1518 1518 1518 1519 1518 1525 1522 1522 1532 1538 1545 1538 1544 1537 1538 1540 1543 1540 1542 1544 1547 1552 1556 1559 1562 1566 1570 1574 1577 1580 1583 1586 1589 1592 1594 1597 1599 1601 1602 1604 1604 1605 1606
1516 1515 1517 1518 1514 1515 1523 1521 1523 1526 1535 1539 1539 1540 1530 1536 1535 1535 1535 1535 1539 1543 1547 1551 1555 1559 1564 1568 1572 1576 1579 1581 1584 1587 1590 1593 1596 1598 1600 1602 1603 1604 1605 1606
1511 1513 1512 1511 1512 1512 1518 1519 1525 1529 1535 1542 1533 1534 1528 1528 1519 1522 1527 1531 1534 1539 1543 1548 1553 1558 1562 1566 1569 1573 1577 1579 1582 1585 1588 1591 1594 1596 1598 1600 1602 1603 1605 1606
1512 1508 1509 1510 1514 1516 1514 1513 1535 1539 1542 1536 1535 1536 1513 1510 1508 1512 1516 1522 1528 1534 1540 1545 1548 1552 1557 1562 1566 1570 1574 1577 1580 1583 1586 1589 1591 1593 1596 1598 1600 1602 1603 1604
1515 1517 1506 1505 1505 1508 1509 1509 1521 1541 1539 1531 1532 1535 1510 1505 1505 1508 1515 1519 1526 1531 1536 1540 1543 1549 1553 1558 1563 1568 1571 1575 1578 1581 1584 1586 1589 1591 1594 1596 1598 1600 1601 1602
1513 1509 1500 1500 1503 1504 1513 1517 1514 1524 1532 1531 1520 1517 1509 1507 1508 1510 1514 1519 1521 1526 1531 1535 1539 1544 1550 1555 1560 1564 1568 1572 1575 1578 1582 1584 1586 1588 1591 1594 1595 1597 1598 1599
1504 1511 1501 1501 1503 1508 1505 1509 1522 1523 1540 1540 1519 1522 1519 1515 1513 1512 1512 1514 1520 1524 1529 1533 1537 1542 1546 1552 1557 1562 1566 1569 1572 1575 1578 1581 1584 1586 1589 1591 1593 1594 1595 1596
1501 1505 1505 1501 1503 1503 1510 1511 1512 1511 1516 1531 1528 1526 1520 1521 1518 1511 1509 1515 1518 1519 1521 1528 1533 1538 1544 1550 1553 1558 1562 1566 1569 1572 1575 1578 1580 1583 1586 1588 1589 1590 1592 1593
1502 1501 1506 1507 1505 1504 1504 1504 1506 1507 1527 1523 1524 1531 1524 1521 1519 1515 1514 1516 1518 1520 1523 1527 1529 1534 1540 1545 1550 1554 1559 1563 1567 1570 1573 1575 1577 1579 1581 1583 1585 1586 1588 1589
1501 1506 1510 1510 1509 1506 1508 1507 1508 1510 1508 1530 1521 1523 1524 1522 1518 1517 1515 1516 1516 1516 1521 1525 1529 1532 1535 1541 1546 1550 1555 1559 1563 1567 1569 1572 1574 1575 1577 1579 1581 1582 1584 1585
1500 1507 1508 1504 1510 1516 1515 1512 1511 1506 1510 1516 1511 1523 1521 1521 1519 1518 1517 1515 1515 1516 1519 1522 1526 1529 1533 1538 1542 1546 1551 1556 1560 1563 1565 1567 1570 1572 1574 1576 1577 1579 1581 1581
1498 1511 1510 1509 1506 1509 1516 1513 1511 1510 1514 1513 1510 1516 1523 1523 1524 1521 1518 1517 1516 1516 1519 1521 1525 1528 1531 1534 1538 1545 1548 1552 1555 1557 1560 1562 1566 1568 1569 1572 1574 1576 1577 1578
1504 1510 1514 1516 1512 1513 1512 1508 1508 1510 1514 1517 1515 1524 1525 1526 1525 1522 1521 1520 1518 1519 1519 1520 1523 1526 1527 1531 1536 1541 1543 1546 1551 1553 1555 1558 1561 1565 1567 1568 1571 1573 1574 1575
1505 1512 1517 1520 1518 1514 1524 1512 1509 1512 1516 1514 1515 1523 1528 1527 1527 1525 1525 1523 1521 1521 1521 1522 1523 1524 1525 1529 1534 1537 1540 1542 1546 1549 1551 1554 1556 1559 1563 1564 1566 1570 1571 1572
1509 1510 1517 1520 1521 1529 1519 1514 1512 1509 1519 1519 1519 1525 1528 1528 1529 1529 1528 1527 1525 1525 1524 1524 1525 1526 1527 1529 1532 1534 1537 1540 1542 1544 1547 1549 1552 1553 1555 1560 1561 1564 1567 1569
1508 1513 1526 1523 1521 1521 1518 1515 1514 1511 1519 1523 1521 1527 1528 1528 1530 1531 1530 1530 1530 1529 1529 1529 1529 1530 1530 1530 1531 1533 1537 1538 1539 1541 1543 1545 1547 1550 1544 1553 1556 1560 1562 1564
1509 1509 1507 1519 1522 1526 1517 1516 1515 1514 1520 1521 1522 1527 1527 1528 1525 1531 1532 1532 1531 1532 1532 1532 1531 1532 1532 1533 1534 1535 1536 1536 1538 1540 1543 1544 1543 1544 1548 1551 1553 1556 1560 1563
1511 1513 1514 1517 1517 1516 1516 1517 1516 1521 1525 1521 1522 1525 1527 1525 1528 1528 1531 1532 1532 1532 1533 1534 1534 1534 1533 1534 1536 1537 1537 1538 1540 1542 1543 1545 1547 1544 1546 1548 1550 1553 1556 1558
1512 1514 1517 1522 1519 1522 1517 1517 1517 1517 1518 1520 1522 1523 1524 1524 1526 1529 1529 1531 1533 1534 1533 1535 1535 1535 1536 1536 1538 1538 1539 1540 1541 1544 1545 1545 1545 1546 1546 1548 1550 1552 1553 1553
1516 1513 1512 1516 1513 1515 1516 1516 1516 1517 1518 1521 1522 1522 1523 1525 1526 1528 1530 1532 1532 1534 1534 1535 1536 1537 1537 1538 1539 1540 1540 1541 1543 1544 1544 1545 1546 1547 1546 1547 1549 1551 1551 1552
1513 1516 1512 1516 1514 1514 1515 1515 1516 1517 1518 1519 1521 1522 1524 1525 1526 1528 1530 1532 1533 1534 1535 1536 1538 1539 1539 1539 1540 1541 1542 1543 1544 1545 1545 1547 1548 1547 1548 1548 1551 1552 1552 1552
1508 1513 1512 1512 1511 1513 1513 1514 1515 1516 1518 1518 1520 1521 1523 1525 1527 1528 1529 1530 1533 1535 1537 1538 1539 1539 1540 1540 1542 1543 1543 1545 1546 1546 1547 1547 1548 1549 1550 1549 1552 1553 1553 1552
1504 1503 1505 1503 1504 1506 1508 1510 1513 1515 1517 1517 1519 1521 1524 1525 1527 1529 1530 1531 1533 1535 1536 1537 1538 1539 1540 1541 1543 1544 1544 1545 1547 1548 1549 1549 1549 1550 1550 1550 1551 1553 1552 1553
Wind_Speed
2 6 10 8 5 4 7 7 6 3 2 2 4 2 7 15 18 16 19 21 22 19 15 16 17 17 14 15 20 20 18 16 17 16 14 12 11 8 8 6 9 4 5 7
5 11 4 4 7 7 6 7 4 2 1 3 1 2 6 9 14 12 17 22 22 18 17 18 19 20 18 15 18 19 18 16 18 16 12 12 10 7 9 9 8 5 6 7
6 1 9 7 7 6 5 3 5 2 5 2 2 3 5 8 13 23 21 22 22 24 21 20 21 23 21 19 18 19 20 17 17 16 14 12 10 8 11 9 7 6 6 7
2 4 7 6 6 7 5 2 4 10 9 3 8 1 5 11 14 18 19 22 27 25 23 21 21 25 24 21 18 17 19 20 18 17 14 13 14 13 12 7 5 4 5 6
4 6 8 8 7 10 4 7 10 5 6 4 6 3 3 9 10 19 22 22 25 26 28 27 25 25 24 24 21 19 18 19 21 20 16 14 13 13 11 10 8 6 6 6
4 0 3 2 4 9 18 10 8 5 2 4 2 6 4 10 18 23 25 22 25 26 27 27 26 23 25 25 23 22 19 18 18 20 19 15 12 14 12 11 10 8 6 8
1 8 3 7 11 12 8 6 2 1 3 2 1 4 8 13 14 26 31 36 26 25 26 26 27 30 29 27 26 23 23 21 21 22 21 16 16 15 13 10 11 11 9 9
3 5 11 10 12 9 15 9 4 4 3 2 4 5 1 8 11 20 28 33 21 24 26 28 30 33 32 28 27 26 24 24 23 23 22 18 17 18 16 13 13 13 10 11
3 1 5 14 5 9 7 9 3 4 1 3 2 3 0 1 5 8 19 26 28 28 27 31 31 34 32 29 28 28 26 23 24 23 22 20 19 18 19 17 13 13 12 11
1 2 3 6 8 7 8 12 5 1 4 2 1 2 3 9 7 5 15 27 24 29 27 31 29 31 33 30 27 26 26 24 23 23 21 19 19 19 18 18 16 14 13 13
5 3 3 6 6 9 9 5 2 2 2 2 2 1 6 10 9 6 14 22 23 24 34 33 32 36 30 30 28 27 25 25 24 23 22 20 18 20 20 20 17 16 15 14
3 2 2 3 2 2 1 7 6 4 6 2 3 2 5 6 7 8 5 10 15 20 22 28 32 35 36 34 31 29 27 25 25 23 21 19 17 19 21 21 19 15 15 15
5 0 5 7 5 3 2 1 3 1 0 7 5 3 3 5 6 9 6 2 6 16 16 23 22 30 31 27 30 31 29 28 25 24 22 21 18 18 20 19 19 17 16 16
4 3 4 5 5 3 1 3 2 5 4 5 4 7 1 4 7 10 10 5 1 4 13 19 24 31 31 31 27 21 31 27 27 25 25 23 21 17 17 17 17 17 15 16
2 6 7 9 13 13 2 5 5 6 2 4 8 7 3 4 5 7 9 8 8 6 4 11 17 20 25 31 32 33 31 29 26 22 26 26 24 19 16 17 16 16 16 17
3 3 2 4 6 11 6 10 6 6 6 8 11 7 3 2 3 8 10 11 15 12 8 5 11 17 20 24 28 30 33 32 28 29 26 24 23 21 17 13 14 17 16 17
3 3 1 2 2 2 4 5 9 6 3 6 5 5 5 4 7 8 8 10 12 15 13 8 6 8 13 16 19 23 27 29 28 26 24 27 27 24 17 15 14 16 17 16
5 7 1 2 2 5 3 2 7 13 7 5 11 9 8 8 8 10 9 8 11 12 14 14 11 7 5 7 8 10 12 15 20 22 25 26 24 26 22 22 16 14 17 19
1 4 3 3 4 2 3 2 2 1 5 4 9 8 10 10 8 8 9 8 10 10 11 8 10 9 6 6 7 6 7 8 9 11 13 15 14 15 13 14 11 12 12 16
6 6 1 3 3 5 3 3 2 4 4 11 11 12 13 8 3 4 5 7 9 9 6 6 7 7 8 8 8 8 6 4 4 9 10 10 6 10 10 13 14 7 9 13
2 3 2 3 1 1 1 1 3 4 3 8 10 13 10 2 3 11 9 6 6 7 8 8 6 6 6 9 8 5 4 6 5 7 10 7 6 6 7 11 11 13 16 20
1 1 1 2 1 3 1 2 3 2 3 9 12 10 6 7 10 8 7 6 5 5 7 7 7 8 8 8 5 7 6 5 6 7 8 5 4 5 4 4 7 9 8 7
2 1 1 4 1 1 2 2 2 3 2 6 7 8 10 11 10 10 8 7 7 5 5 6 6 8 9 8 6 3 4 4 3 3 5 5 4 3 3 3 3 3 2 1
4 3 2 3 3 5 4 3 4 3 4 5 6 11 11 9 9 7 7 7 7 6 5 5 6 7 7 7 7 7 7 5 4 3 4 5 6 6 7 8 6 5 4 3
2 9 4 3 5 4 10 10 7 6 3 4 7 10 9 8 8 6 4 5 6 8 7 6 6 5 6 5 5 5 6 6 5 5 5 5 5 4 4 3 3 3 4 2
9 6 6 5 8 5 4 11 12 10 6 4 11 13 10 8 7 6 6 5 5 7 7 6 4 5 5 4 4 4 6 8 7 5 5 4 4 3 3 3 2 3 4 3
Wind_Direction
120 187 199 176 180 109 131 129 125 132 321 94 174 48 341 201 220 200 201 208 209 203 197 207 203 195 194 200 195 190 190 192 192 188 187 185 175 167 162 163 170 162 162 165
164 207 171 156 166 147 150 148 111 114 193 31 295 68 272 191 191 202 215 213 214 204 205 203 209 202 196 194 199 197 195 190 188 189 185 187 180 184 176 157 159 179 169 164
190 69 171 159 173 173 187 228 173 103 146 237 215 205 209 201 198 237 256 227 220 209 207 203 208 206 200 198 202 200 196 190 187 192 193 196 207 187 174 165 166 171 178 189
203 135 176 188 202 200 179 336 161 145 154 252 192 202 219 182 209 225 245 220 219 216 214 211 204 206 206 203 200 204 200 201 202 199 208 212 198 193 185 189 192 199 194 199
160 160 165 198 206 179 139 97 82 145 195 296 188 274 104 165 189 226 224 219 213 217 213 212 210 206 208 207 201 202 204 204 208 219 216 208 211 208 221 215 216 216 214 219
250 196 229 218 190 176 148 123 97 116 123 249 162 220 197 192 217 208 215 212 209 213 216 215 215 209 210 210 206 205 205 206 204 200 205 209 221 210 222 225 221 217 235 243
249 239 214 179 133 144 211 187 76 139 225 284 303 196 263 215 222 208 205 205 209 210 212 212 209 213 213 213 210 208 209 207 204 206 210 223 222 215 220 216 219 229 254 246
265 196 185 167 187 191 201 206 169 229 210 281 145 235 306 345 215 212 213 208 201 217 210 209 211 213 214 215 215 213 211 213 211 215 221 228 227 224 223 223 235 237 249 239
216 246 191 201 157 172 175 211 78 123 160 248 198 253 80 67 140 201 194 195 207 215 211 211 211 212 214 213 218 217 217 216 217 222 227 233 231 227 226 233 241 237 249 245
219 252 36 145 151 69 218 146 170 157 187 211 223 280 341 343 326 232 199 203 213 222 219 213 212 212 214 213 215 219 220 218 219 220 227 233 235 230 228 234 246 250 242 250
187 249 73 160 207 177 148 172 125 143 218 114 265 88 338 334 321 267 212 202 207 213 221 217 219 220 225 217 216 218 218 220 221 223 227 231 235 231 235 243 245 244 242 247
178 182 128 86 355 246 82 172 193 211 176 85 310 166 343 343 13 42 117 190 205 215 216 221 222 222 219 224 221 221 223 224 225 224 226 232 234 235 238 243 245 241 238 243
169 79 129 133 128 69 33 120 213 0 120 167 276 135 47 352 7 30 33 356 235 222 211 211 209 217 222 226 228 226 231 233 231 232 229 232 232 235 237 243 246 245 244 243
166 76 279 192 99 88 254 2 200 219 220 168 226 141 56 21 5 26 22 14 196 198 214 212 221 227 222 220 214 222 234 235 235 237 236 234 233 236 237 240 242 242 245 242
69 55 64 93 95 75 55 88 112 203 295 227 161 125 99 52 343 12 38 57 86 95 138 206 216 216 225 227 227 229 240 237 229 231 238 237 236 235 233 236 238 240 248 247
304 104 61 92 72 125 65 65 101 85 75 87 123 100 95 14 72 57 53 70 75 74 86 151 213 224 230 231 235 229 229 234 233 236 240 236 246 238 235 235 243 246 246 244
59 115 201 206 321 246 250 53 82 80 64 145 168 122 156 91 62 38 36 58 67 74 84 91 140 193 217 232 239 240 237 237 238 237 234 232 229 226 234 234 243 239 244 245
146 148 28 68 242 225 45 30 68 99 63 94 102 133 148 116 89 65 62 53 69 73 82 92 93 109 149 186 200 221 232 240 246 247 240 230 220 230 239 239 255 254 240 238
242 119 114 214 200 344 191 170 150 343 113 186 130 146 137 140 113 57 73 84 89 95 97 99 103 96 101 127 134 147 205 225 222 224 225 214 219 226 229 212 214 227 233 237
93 68 206 153 167 220 68 113 5 165 137 165 154 169 171 166 181 149 132 100 90 94 101 122 92 94 107 113 122 115 111 113 223 236 225 223 198 215 216 230 223 221 249 255
30 21 75 147 162 136 188 317 154 199 83 164 164 173 183 209 52 144 147 125 104 93 93 84 84 83 102 101 112 119 116 105 130 196 191 185 201 199 240 241 258 282 273 262
64 147 125 139 200 209 158 189 220 56 124 145 151 168 174 142 136 139 139 131 123 105 106 95 76 91 92 93 99 144 144 132 139 150 171 199 235 253 223 229 241 254 261 247
209 258 332 221 33 131 223 255 195 153 127 156 163 161 152 145 147 146 133 118 117 118 104 106 102 95 104 101 92 97 118 102 94 130 148 155 163 166 168 179 190 179 141 133
178 168 207 215 178 228 218 198 185 172 134 157 151 159 155 149 143 136 136 133 128 127 133 127 119 117 113 106 100 102 105 108 114 107 112 119 107 113 109 115 127 129 129 129
106 160 169 241 240 239 235 213 197 205 224 206 170 164 151 141 137 130 124 135 149 150 152 154 143 128 123 110 111 119 122 117 106 109 118 127 139 126 148 145 168 165 152 122
188 170 190 224 202 195 177 207 198 206 221 201 170 160 155 144 131 128 138 144 146 147 153 169 173 152 146 159 155 138 126 116 109 111 108 110 113 116 112 118 145 200 206 193